Weather History for Limon, CO

Change the Weather History Date:

Tuesday, September 17, 2013

  Actual Average Record
Temperature  
Mean Temperature 68 °F -  
Max Temperature 82 °F - 93 °F (2000)
Min Temperature 54 °F - 27 °F (2006)
Degree Days  
Heating Degree Days 0    
Month to date heating degree days 19  
Cooling Degree Days 3    
Month to date cooling degree days 61  
Growing Degree Days 17 (Base 50)    
Moisture  
Dew Point 54 °F    
Average Humidity 65    
Maximum Humidity 100    
Minimum Humidity 30    
Precipitation  
Precipitation 0.00 in - 0.09 in (2001)
Month to date precipitation 2.99  
Year to date precipitation 15.14  
Sea Level Pressure  
Sea Level Pressure 29.94 in    
Wind  
Wind Speed 11 mph (SSE)    
Max Wind Speed 21 mph    
Max Gust Speed 25 mph    
Visibility 7 miles    
Events Fog    
T = Trace of Precipitation, MM = Missing Value Source: NWS Daily Summary

Daily Weather History Graph

Daily Weather History Graph

Search for Another Location

Airport:

Trip Planner

Search our weather history database for the weather conditions in past years. The results will help you decide how hot, cold, wet, or windy it might be!

Date:

Astronomy

Sep. 17, 2013 Rise Set
Actual Time 6:38 AM MDT 6:59 PM MDT
Civil Twilight 6:11 AM MDT 7:26 PM MDT
Nautical Twilight 5:39 AM MDT 7:57 PM MDT
Astronomical Twilight 5:07 AM MDT 8:29 PM MDT
Moon 5:47 PM MDT (9/17) 4:35 AM MDT (9/17)
Length of Visible Light 13h 14m
Length of Day
12h 21m
Waxing Gibbous, 96% of the Moon is Illuminated
Sep 17
Waxing Gibbous
Sep 19
Full
Sep 26
Last Quarter
Oct 4
New
Oct 11
First Quarter

Hourly Weather History & Observations

Time (MDT) Temp. Dew Point Humidity Pressure Visibility Wind Dir Wind Speed Gust Speed Precip Events Conditions
12:03 AM 57.2 °F 57.2 °F 100% 30.18 in 3.0 mi SSE 15.0 mph - N/A   Overcast
12:55 AM 57.0 °F 57.0 °F 100% 30.03 in 7.0 mi SSE 13.8 mph - N/A   Overcast
1:11 AM 57.2 °F 57.2 °F 100% 30.17 in 10.0 mi SSE 13.8 mph - N/A   Overcast
1:43 AM 57.2 °F 57.2 °F 100% 30.16 in 9.0 mi South 8.1 mph 18.4 mph N/A   Overcast
1:55 AM 57.9 °F 57.0 °F 97% 30.00 in 10.0 mi South 10.4 mph - N/A   Overcast
2:46 AM 57.2 °F 57.2 °F 100% 30.14 in 10.0 mi South 12.7 mph - N/A   Overcast
2:55 AM 57.9 °F 57.0 °F 97% 29.97 in 10.0 mi South 12.7 mph - N/A   Overcast
3:50 AM 57.2 °F 57.2 °F 100% 30.11 in 9.0 mi South 13.8 mph - N/A   Overcast
3:55 AM 57.0 °F 57.0 °F 100% 29.95 in 9.0 mi South 13.8 mph - N/A   Overcast
4:55 AM 57.0 °F 55.9 °F 96% 29.94 in 8.0 mi South 10.4 mph 18.4 mph N/A   Overcast
5:55 AM 55.9 °F 55.9 °F 100% 29.94 in 5.0 mi South 8.1 mph - N/A   Overcast
6:10 AM 55.4 °F 55.4 °F 100% 30.10 in 2.5 mi South 9.2 mph - N/A   Overcast
6:31 AM 55.4 °F 55.4 °F 100% 30.10 in 0.8 mi South 8.1 mph - N/A   Mist
6:55 AM 54.0 °F 54.0 °F 100% 29.96 in 0.2 mi SSW 9.2 mph - N/A Fog Fog
7:55 AM 54.0 °F 54.0 °F 100% 29.97 in 0.2 mi Variable 5.8 mph - N/A Fog Fog
8:09 AM 53.6 °F 53.6 °F 100% 30.10 in 0.5 mi Variable 6.9 mph - N/A Fog Fog
8:16 AM 55.4 °F 55.4 °F 100% 30.10 in 0.2 mi Variable 5.8 mph - N/A Fog Fog
8:42 AM 55.4 °F 55.4 °F 100% 30.10 in 1.0 mi Variable 6.9 mph - N/A   Mist
8:46 AM 55.4 °F 55.4 °F 100% 30.10 in 3.0 mi Variable 5.8 mph - N/A   Overcast
8:55 AM 55.9 °F 55.0 °F 97% 29.96 in 5.0 mi SE 9.2 mph - N/A   Mostly Cloudy
9:09 AM 57.2 °F 55.4 °F 94% 30.10 in 10.0 mi SSE 8.1 mph - N/A   Scattered Clouds
9:55 AM 66.0 °F 55.0 °F 68% 29.93 in 10.0 mi SW 9.2 mph - N/A   Clear
10:55 AM 75.0 °F 54.0 °F 48% 29.88 in 10.0 mi SSE 8.1 mph - N/A   Clear
11:55 AM 78.1 °F 45.0 °F 31% 29.85 in 10.0 mi Variable 6.9 mph - N/A   Clear
12:55 PM 81.0 °F 48.9 °F 33% 29.82 in 10.0 mi SSE 9.2 mph 18.4 mph N/A   Clear
1:55 PM 81.0 °F 48.9 °F 33% 29.79 in 10.0 mi SSE 13.8 mph 23.0 mph N/A   Clear
2:55 PM 80.1 °F 48.0 °F 32% 29.77 in 10.0 mi SSE 10.4 mph 21.9 mph N/A   Clear
3:55 PM 81.0 °F 48.0 °F 31% 29.75 in 10.0 mi South 13.8 mph 20.7 mph N/A   Clear
4:55 PM 80.1 °F 46.9 °F 31% 29.74 in 10.0 mi South 9.2 mph 21.9 mph N/A   Clear
5:55 PM 78.1 °F 48.0 °F 35% 29.74 in 10.0 mi South 15.0 mph 19.6 mph N/A   Clear
6:55 PM 71.1 °F 52.0 °F 51% 29.76 in 10.0 mi SSE 11.5 mph - N/A   Clear
7:55 PM 64.0 °F 52.0 °F 65% 29.79 in 10.0 mi SSE 6.9 mph - N/A   Clear
8:55 PM 61.0 °F 53.1 °F 75% 29.80 in 10.0 mi SSE 9.2 mph - N/A   Clear
9:55 PM 57.0 °F 53.1 °F 87% 29.78 in 10.0 mi Variable 5.8 mph - N/A   Clear
10:55 PM 57.9 °F 52.0 °F 81% 29.73 in 10.0 mi SE 6.9 mph - N/A   Clear
11:55 PM 59.0 °F 54.0 °F 83% 29.71 in 10.0 mi SE 9.2 mph - N/A   Clear